When you browse on this site, cookies collect data to enhance your experience and personalize the content and advertising you see.
Visit our Privacy Policy to learn more. By continuing to use the site, you agree to this use of cookies and data.
  • In Spain
  • List of Countries
  • For 7 days
  • Water Temperature
  • Weather Map
  • Weather Widgets
  • user-avatar
    Login

    Hourly Weather Gjirokaster

    Today, 4 June, Thursday

    Time Temperature Precipitation Wind Pressure Humidity
    00:00 +7°C° 0 mm 1 mps 647 mmHg 72%
    01:00 +7°C° 0 mm 1 mps 647 mmHg 70%
    02:00 +7°C° 0 mm 1 mps 647 mmHg 70%
    03:00 +7°C° 0 mm 1 mps 647 mmHg 70%
    04:00 +7°C° 0 mm 1 mps 647 mmHg 69%
    05:00 +9°C° 0 mm 1 mps 648 mmHg 66%
    06:00 +10°C° 0 mm 1 mps 648 mmHg 62%
    07:00 +12°C° 0 mm 1 mps 649 mmHg 59%
    08:00 +13°C° 0 mm 2 mps 650 mmHg 56%
    09:00 +15°C° 0 mm 2 mps 650 mmHg 53%
    10:00 +16°C° 0 mm 2 mps 651 mmHg 49%
    11:00 +16°C° 0 mm 3 mps 651 mmHg 49%
    12:00 +17°C° 0 mm 3 mps 651 mmHg 48%
    13:00 +17°C° 0 mm 3 mps 651 mmHg 48%
    14:00 +17°C° 0 mm 3 mps 651 mmHg 49%
    15:00 +16°C° 0 mm 3 mps 651 mmHg 51%
    16:00 +16°C° 0 mm 3 mps 651 mmHg 52%
    17:00 +13°C° 0 mm 3 mps 650 mmHg 60%
    18:00 +11°C° 0 mm 3 mps 650 mmHg 68%
    19:00 +9°C° 0 mm 3 mps 649 mmHg 76%
    20:00 +9°C° 0 mm 3 mps 649 mmHg 77%
    21:00 +8°C° 0 mm 3 mps 649 mmHg 79%
    22:00 +8°C° 0 mm 3 mps 649 mmHg 80%
    23:00 +7°C° 0 mm 3 mps 649 mmHg 79%

    Tomorrow, 5 June, Friday

    Time Temperature Precipitation Wind Pressure Humidity
    00:00 +7°C° 0 mm 3 mps 648 mmHg 78%
    01:00 +7°C° 0 mm 3 mps 648 mmHg 77%
    02:00 +7°C° 0 mm 3 mps 648 mmHg 74%
    03:00 +7°C° 0 mm 3 mps 648 mmHg 71%
    04:00 +7°C° 0 mm 3 mps 647 mmHg 68%
    05:00 +9°C° 0 mm 3 mps 648 mmHg 65%
    06:00 +10°C° 0 mm 2 mps 649 mmHg 61%
    07:00 +13°C° 0 mm 2 mps 650 mmHg 57%
    08:00 +13°C° 0 mm 3 mps 650 mmHg 52%
    09:00 +16°C° 0 mm 3 mps 650 mmHg 48%
    10:00 +17°C° 0 mm 3 mps 650 mmHg 43%
    11:00 +17°C° 0 mm 4 mps 650 mmHg 44%
    12:00 +17°C° 0 mm 4 mps 649 mmHg 45%
    13:00 +18°C° 0 mm 4 mps 649 mmHg 46%
    14:00 +17°C° 0 mm 4 mps 649 mmHg 50%
    15:00 +16°C° 0 mm 3 mps 648 mmHg 53%
    16:00 +15°C° 0 mm 2 mps 648 mmHg 57%
    17:00 +14°C° 0 mm 2 mps 647 mmHg 59%
    18:00 +13°C° 0 mm 1 mps 647 mmHg 61%
    19:00 +12°C° 0 mm 1 mps 647 mmHg 63%
    20:00 +12°C° 0.1 mm 1 mps 647 mmHg 64%
    21:00 +12°C° 0.1 mm 1 mps 647 mmHg 64%
    22:00 +11°C° 0.1 mm 1 mps 647 mmHg 65%
    23:00 +11°C° 0.5 mm 1 mps 646 mmHg 71%

    Day after tomorrow, 6 June, Saturday

    Time Temperature Precipitation Wind Pressure Humidity
    00:00 +10°C° 0.5 mm 1 mps 646 mmHg 77%
    01:00 +10°C° 0.5 mm 1 mps 646 mmHg 83%
    02:00 +9°C° 0.9 mm 2 mps 646 mmHg 84%
    03:00 +9°C° 0.9 mm 2 mps 646 mmHg 85%
    04:00 +8°C° 0.9 mm 2 mps 646 mmHg 87%
    05:00 +9°C° 0.3 mm 2 mps 646 mmHg 83%
    06:00 +11°C° 0.3 mm 1 mps 646 mmHg 79%
    07:00 +12°C° 0.3 mm 1 mps 647 mmHg 75%
    08:00 +13°C° 0 mm 1 mps 647 mmHg 71%
    09:00 +14°C° 0 mm 1 mps 648 mmHg 68%
    10:00 +15°C° 0 mm 1 mps 648 mmHg 64%
    11:00 +15°C° 0.3 mm 1 mps 648 mmHg 65%
    12:00 +15°C° 0.3 mm 2 mps 648 mmHg 66%
    13:00 +16°C° 0.3 mm 2 mps 648 mmHg 66%
    14:00 +16°C° 0.3 mm 2 mps 648 mmHg 68%
    15:00 +15°C° 0.3 mm 2 mps 648 mmHg 70%
    16:00 +15°C° 0.3 mm 2 mps 648 mmHg 72%
    17:00 +14°C° 0.1 mm 2 mps 648 mmHg 77%
    18:00 +13°C° 0.1 mm 1 mps 648 mmHg 82%
    19:00 +12°C° 0.1 mm 1 mps 648 mmHg 87%
    20:00 +11°C° 0 mm 1 mps 648 mmHg 87%
    21:00 +9°C° 0 mm 0 mps 648 mmHg 88%
    22:00 +9°C° 0 mm 0 mps 649 mmHg 88%
    23:00 +9°C° 0 mm 0 mps 648 mmHg 88%

    7 June, Sunday

    Time Temperature Precipitation Wind Pressure Humidity
    00:00 +9°C° 0 mm 0 mps 648 mmHg 88%
    01:00 +8°C° 0 mm 0 mps 648 mmHg 88%
    02:00 +8°C° 0 mm 0 mps 648 mmHg 88%
    03:00 +8°C° 0 mm 0 mps 648 mmHg 87%
    04:00 +8°C° 0 mm 1 mps 648 mmHg 87%
    05:00 +10°C° 0 mm 1 mps 649 mmHg 81%
    06:00 +11°C° 0 mm 0 mps 649 mmHg 76%
    07:00 +12°C° 0 mm 0 mps 650 mmHg 70%
    08:00 +15°C° 0 mm 1 mps 650 mmHg 65%
    09:00 +16°C° 0 mm 1 mps 651 mmHg 60%
    10:00 +18°C° 0 mm 1 mps 651 mmHg 55%
    11:00 +18°C° 0 mm 2 mps 651 mmHg 54%
    12:00 +18°C° 0 mm 2 mps 651 mmHg 54%
    13:00 +19°C° 0 mm 2 mps 651 mmHg 53%
    14:00 +18°C° 0 mm 2 mps 651 mmHg 56%
    15:00 +18°C° 0 mm 2 mps 651 mmHg 58%
    16:00 +17°C° 0 mm 2 mps 651 mmHg 61%
    17:00 +16°C° 0 mm 2 mps 651 mmHg 67%
    18:00 +14°C° 0 mm 1 mps 650 mmHg 74%
    19:00 +13°C° 0 mm 1 mps 650 mmHg 81%
    20:00 +12°C° 0 mm 1 mps 650 mmHg 82%
    21:00 +12°C° 0 mm 1 mps 650 mmHg 82%
    22:00 +10°C° 0 mm 0 mps 650 mmHg 83%
    23:00 +10°C° 0 mm 0 mps 650 mmHg 83%

    8 June, Monday

    Time Temperature Precipitation Wind Pressure Humidity
    00:00 +9°C° 0 mm 0 mps 650 mmHg 83%
    01:00 +9°C° 0 mm 0 mps 649 mmHg 84%
    02:00 +9°C° 0 mm 0 mps 649 mmHg 83%
    03:00 +9°C° 0 mm 0 mps 649 mmHg 82%
    04:00 +10°C° 0 mm 1 mps 649 mmHg 82%
    05:00 +12°C° 0 mm 1 mps 649 mmHg 76%
    06:00 +13°C° 0 mm 1 mps 650 mmHg 71%
    07:00 +15°C° 0 mm 1 mps 650 mmHg 66%
    08:00 +16°C° 0 mm 1 mps 651 mmHg 61%
    09:00 +18°C° 0 mm 1 mps 651 mmHg 56%
    10:00 +20°C° 0 mm 1 mps 652 mmHg 52%
    11:00 +20°C° 0 mm 1 mps 652 mmHg 52%
    12:00 +20°C° 0 mm 1 mps 652 mmHg 53%
    13:00 +20°C° 0 mm 1 mps 652 mmHg 53%
    14:00 +20°C° 0 mm 1 mps 651 mmHg 53%
    15:00 +20°C° 0 mm 1 mps 651 mmHg 53%
    16:00 +21°C° 0 mm 1 mps 651 mmHg 52%
    17:00 +19°C° 0 mm 1 mps 651 mmHg 60%
    18:00 +16°C° 0 mm 1 mps 650 mmHg 68%
    19:00 +14°C° 0 mm 1 mps 650 mmHg 76%
    20:00 +14°C° 0.1 mm 1 mps 650 mmHg 78%
    21:00 +13°C° 0.1 mm 1 mps 650 mmHg 80%
    22:00 +11°C° 0.1 mm 0 mps 650 mmHg 82%
    23:00 +11°C° 0.1 mm 0 mps 650 mmHg 82%

    9 June, Tuesday

    Time Temperature Precipitation Wind Pressure Humidity
    00:00 +11°C° 0.1 mm 0 mps 650 mmHg 83%
    01:00 +10°C° 0.1 mm 0 mps 650 mmHg 83%
    02:00 +11°C° 0 mm 1 mps 649 mmHg 83%
    03:00 +11°C° 0 mm 1 mps 649 mmHg 82%
    04:00 +11°C° 0 mm 1 mps 649 mmHg 82%
    05:00 +13°C° 0 mm 1 mps 650 mmHg 76%
    06:00 +14°C° 0 mm 1 mps 650 mmHg 70%
    07:00 +16°C° 0 mm 1 mps 651 mmHg 64%
    08:00 +18°C° 0 mm 1 mps 652 mmHg 60%
    09:00 +19°C° 0 mm 1 mps 652 mmHg 55%
    10:00 +21°C° 0 mm 1 mps 652 mmHg 51%
    11:00 +20°C° 0 mm 2 mps 652 mmHg 50%
    12:00 +20°C° 0 mm 2 mps 652 mmHg 50%
    13:00 +21°C° 0 mm 2 mps 652 mmHg 49%
    14:00 +20°C° 0.2 mm 2 mps 652 mmHg 52%
    15:00 +20°C° 0.2 mm 2 mps 651 mmHg 55%
    16:00 +19°C° 0.2 mm 2 mps 651 mmHg 58%
    17:00 +18°C° 0.2 mm 1 mps 651 mmHg 65%
    18:00 +16°C° 0.2 mm 1 mps 650 mmHg 73%
    19:00 +14°C° 0.2 mm 1 mps 650 mmHg 80%
    20:00 +14°C° 0 mm 1 mps 650 mmHg 82%
    21:00 +12°C° 0 mm 0 mps 650 mmHg 83%
    22:00 +11°C° 0 mm 0 mps 650 mmHg 85%
    23:00 +11°C° 0 mm 0 mps 650 mmHg 84%
    Show more